Weather History for Kendall, FL

Change the Weather History Date:

Thursday, September 26, 2013

  Actual Average Record
Temperature  
Mean Temperature 84 °F -  
Max Temperature 93 °F 88 °F 96 °F (1997)
Min Temperature 77 °F 72 °F 66 °F (1990)
Cooling Degree Days 19    
Growing Degree Days 34 (Base 50)    
Moisture  
Dew Point 76 °F    
Average Humidity 80    
Maximum Humidity 97    
Minimum Humidity 59    
Precipitation  
Precipitation 0.01 in - - ()
Sea Level Pressure  
Sea Level Pressure 29.86 in    
Wind  
Wind Speed 8 mph (West)    
Max Wind Speed 20 mph    
Max Gust Speed 29 mph    
Visibility 10 miles    
Events      
Averages and records for this station are not official NWS values.
T = Trace of Precipitation, MM = Missing Value Source: NWS Daily Summary

Daily Weather History Graph

Daily Weather History Graph

Search for Another Location

Airport:

Trip Planner

Search our weather history database for the weather conditions in past years. The results will help you decide how hot, cold, wet, or windy it might be!

Date:

Astronomy

Sep. 26, 2013 Rise Set
Actual Time 7:12 AM EDT 7:13 PM EDT
Civil Twilight 6:49 AM EDT 7:36 PM EDT
Nautical Twilight 6:22 AM EDT 8:03 PM EDT
Astronomical Twilight 5:55 AM EDT 8:29 PM EDT
Moon No Moon Rise 1:33 PM EDT (9/26)
Length of Visible Light 12h 47m
Length of Day
12h 01m
Waning Gibbous, 55% of the Moon is Illuminated
Sep 26
Waning Gibbous
Sep 26
Last Quarter
Oct 4
New
Oct 11
First Quarter
Oct 18
Full

Hourly Weather History & Observations

Time (EDT) Temp. Heat Index Dew Point Humidity Pressure Visibility Wind Dir Wind Speed Gust Speed Precip Events Conditions
12:53 AM 79.0 °F - 75.9 °F 90% 29.86 in 10.0 mi SW 3.5 mph - N/A   Clear
1:53 AM 79.0 °F - 75.9 °F 90% 29.86 in 10.0 mi WSW 5.8 mph - N/A   Clear
2:53 AM 78.1 °F - 77.0 °F 96% 29.85 in 10.0 mi WSW 4.6 mph - N/A   Clear
3:53 AM 78.1 °F - 75.9 °F 93% 29.84 in 10.0 mi Calm Calm - N/A   Clear
4:53 AM 77.0 °F - 75.9 °F 96% 29.85 in 10.0 mi Calm Calm - N/A   Clear
5:53 AM 77.0 °F - 75.9 °F 96% 29.86 in 10.0 mi SSW 4.6 mph - N/A   Clear
6:53 AM 78.1 °F - 77.0 °F 96% 29.87 in 10.0 mi SW 4.6 mph - N/A   Clear
7:53 AM 79.0 °F - 78.1 °F 97% 29.87 in 10.0 mi SSW 5.8 mph - N/A   Clear
8:53 AM 82.9 °F 93.8 °F 79.0 °F 88% 29.89 in 10.0 mi WSW 6.9 mph - N/A   Clear
9:53 AM 86.0 °F 96.9 °F 77.0 °F 74% 29.89 in 10.0 mi WSW 11.5 mph - N/A   Scattered Clouds
10:33 AM 87.8 °F 99.7 °F 77.0 °F 70% 29.90 in 10.0 mi WSW 12.7 mph - N/A   Mostly Cloudy
10:41 AM 87.8 °F 99.7 °F 77.0 °F 70% 29.90 in 10.0 mi WSW 12.7 mph - N/A   Mostly Cloudy
10:53 AM 88.0 °F 100.2 °F 77.0 °F 70% 29.89 in 10.0 mi West 12.7 mph - N/A   Mostly Cloudy
11:53 AM 89.1 °F 99.1 °F 75.0 °F 63% 29.88 in 10.0 mi West 15.0 mph 23.0 mph N/A   Scattered Clouds
12:53 PM 91.0 °F 102.9 °F 75.9 °F 61% 29.86 in 10.0 mi West 16.1 mph 24.2 mph 0.01 in   Partly Cloudy
1:53 PM 91.0 °F 102.9 °F 75.9 °F 61% 29.83 in 10.0 mi WSW 18.4 mph 25.3 mph N/A   Partly Cloudy
2:53 PM 91.9 °F 103.9 °F 75.9 °F 59% 29.83 in 10.0 mi West 19.6 mph 26.5 mph N/A   Mostly Cloudy
3:53 PM 91.9 °F 105.9 °F 77.0 °F 62% 29.83 in 10.0 mi West 18.4 mph 24.2 mph 0.00 in   Scattered Clouds
4:53 PM 86.0 °F 96.0 °F 75.9 °F 72% 29.84 in 10.0 mi NNW 17.3 mph 28.8 mph N/A   Mostly Cloudy
5:00 PM 86.0 °F 95.1 °F 75.2 °F 70% 29.83 in 10.0 mi NNW 16.1 mph - N/A   Scattered Clouds
5:53 PM 84.0 °F 91.9 °F 75.0 °F 74% 29.83 in 10.0 mi NW 13.8 mph - N/A   Partly Cloudy
6:53 PM 84.0 °F 91.9 °F 75.0 °F 74% 29.84 in 10.0 mi WNW 15.0 mph - N/A   Clear
7:53 PM 82.9 °F 91.8 °F 77.0 °F 82% 29.84 in 10.0 mi WNW 9.2 mph - N/A   Clear
8:53 PM 82.0 °F 89.4 °F 75.9 °F 82% 29.85 in 10.0 mi WNW 10.4 mph - N/A   Clear
9:53 PM 81.0 °F 87.3 °F 75.9 °F 85% 29.86 in 10.0 mi West 8.1 mph - N/A   Clear
10:53 PM 78.1 °F - 75.9 °F 93% 29.87 in 10.0 mi West 5.8 mph - N/A   Clear
11:53 PM 80.1 °F 85.8 °F 77.0 °F 90% 29.87 in 10.0 mi West 4.6 mph - N/A   Clear